Location: Krasnoyarskiy Pitomnik
(51.1333°N, 71.6167°E)
Time: 04:19:03
(UTC+00:00)

Transit 2A - Pass Details

Date: 18 April 2024
Orbit: 594 x 958 km, 66.7° (Epoch: 21 May)

Event Time Altitude Azimuth Distance (km) Brightness Sun altitude
Rises 07:52:53 0° 319° (NW) 3,093 8.9 49.1°
Reaches altitude 10° 07:55:48 10° 337° (NNW) 2,241 8.2 49.0°
Maximum altitude 07:59:29 19° 23° (NNE) 1,767 7.7 48.8°
Drops below altitude 10° 08:03:24 10° 68° (ENE) 2,415 8.4 48.6°
Sets 08:06:41 0° 86° (E) 3,420 9.2 48.4°
